Location: Unspecified
(0.0000°N, 0.0000°E)
Time: 09:21:10
(UTC+02:00)

GPS 2-15 Rocket1 - Visible Passes

Search period start: 29 August 2015 00:00
Search period end: 08 September 2015 00:00
Orbit: 626 x 678 km, 19.8° (Epoch: 28 August)

Date Brightness Start Highest point End Pass type
(mag) Time Alt. Az. Time Alt. Az. Time Alt. Az.
29 Aug 4.7 20:39:29 10° NW 20:43:24 24° NNE 20:46:59 11° ENE visible
29 Aug 5.4 22:22:59 10° WNW 22:24:40 21° WNW 22:24:40 21° WNW visible
30 Aug 5.5 07:10:21 10° S 07:12:03 12° SSE 07:13:50 10° SE visible
30 Aug 3.8 21:05:42 10° NW 21:10:19 42° NNE 21:12:11 29° ENE visible
30 Aug 6.4 22:49:52 10° W 22:49:52 10° W 22:49:52 10° W visible
31 Aug 5.1 07:35:48 10° SSW 07:39:08 19° SSE 07:42:32 10° ESE visible
31 Aug 3.0 21:32:15 10° WNW 21:37:10 81° NNE 21:37:24 78° ENE visible
01 Sep 5.4 06:20:56 12° S 06:21:29 13° SSE 06:23:34 10° SE visible
01 Sep 3.8 20:14:54 10° NW 20:19:39 47° NNE 20:24:22 10° E visible
01 Sep 4.3 21:59:12 10° W 22:02:39 40° WSW 22:02:39 40° WSW visible
02 Sep 5.0 06:46:08 14° SSW 06:48:33 21° SSE 06:52:05 10° ESE visible
02 Sep 3.2 20:41:31 10° WNW 20:46:29 90° NNE 20:50:14 17° ESE visible
02 Sep 5.8 22:26:37 10° W 22:27:55 16° WSW 22:27:55 16° WSW visible
03 Sep 4.2 07:11:22 11° SW 07:15:28 36° SSE 07:19:48 10° E visible
03 Sep 3.9 21:08:33 10° W 21:13:19 47° SSW 21:15:31 28° SE visible
04 Sep 5.1 05:58:56 21° SE 05:58:56 21° SE 06:01:39 10° ESE visible
04 Sep 4.7 21:36:02 10° WSW 21:40:12 26° SSW 21:40:48 26° S visible
05 Sep 3.9 06:24:12 38° S 06:24:52 40° SSE 06:29:16 10° E visible
05 Sep 4.1 20:17:54 10° W 20:22:37 43° SSW 20:27:18 10° SE visible
05 Sep 5.6 22:04:08 10° SW 22:06:04 15° SSW 22:06:04 15° SSW visible
06 Sep 3.0 06:49:29 31° WSW 06:51:42 81° SSE 06:56:21 10° ENE visible
06 Sep 4.9 20:45:29 10° WSW 20:49:32 24° SSW 20:53:31 10° SE visible
07 Sep 5.5 05:37:05 21° E 05:37:05 21° E 05:38:44 10° E visible
07 Sep 3.5 07:14:46 15° W 07:18:31 51° NNW 07:23:02 10° NE visible
07 Sep 5.5 21:13:41 10° SW 21:16:34 15° SSW 21:18:53 11° SSE visible
